Location: Pine Mountain Observatory
(43.7910°N, 120.9377°W)
Time: 08:31:17
(UTC-08:00)

Cosmos 1867 - Visible Passes

Search period start: 22 November 2014 00:00
Search period end: 02 December 2014 00:00
Orbit: 778 x 798 km, 65.0° (Epoch: 21 November)

Date Brightness Start Highest point End Pass type
(mag) Time Alt. Az. Time Alt. Az. Time Alt. Az.
22 Nov 4.6 04:00:31 42° ESE 04:00:31 42° ESE 04:04:14 10° SE visible
22 Nov 4.7 05:41:14 22° W 05:42:02 22° WSW 05:46:08 10° SSW visible
22 Nov 5.0 18:36:38 10° S 18:39:02 22° SSE 18:39:02 22° SSE visible
22 Nov 6.2 20:19:19 10° SW 20:19:46 12° WSW 20:19:46 12° WSW visible
23 Nov 5.8 03:30:46 20° ESE 03:30:46 20° ESE 03:32:25 10° ESE visible
23 Nov 4.5 05:11:30 28° SW 05:11:30 28° SW 05:15:15 10° S visible
23 Nov 4.9 18:05:48 10° SSE 18:09:16 21° ESE 18:09:16 21° ESE visible
23 Nov 5.3 19:47:31 10° SW 19:50:00 27° SW 19:50:00 27° SW visible
24 Nov 5.0 04:41:49 24° SSW 04:41:49 24° SSW 04:44:10 10° S visible
24 Nov 5.1 17:35:21 10° SE 17:38:23 15° ESE 17:39:25 15° E visible
24 Nov 4.0 19:15:49 10° SW 19:20:08 58° SW 19:20:08 58° SW visible
25 Nov 5.8 04:12:10 14° SSE 04:12:10 14° SSE 04:12:53 10° SSE visible
25 Nov 5.5 17:05:57 10° ESE 17:07:01 11° ESE 17:08:05 10° E visible
25 Nov 3.4 18:44:16 10° SSW 18:49:40 76° ESE 18:50:11 69° ENE visible
25 Nov 6.2 20:29:34 10° W 20:30:54 15° W 20:30:54 15° W visible
26 Nov 3.6 18:12:50 10° SSW 18:18:07 56° ESE 18:20:08 35° ENE visible
26 Nov 5.4 19:57:22 10° W 20:00:51 26° WNW 20:00:51 26° WNW visible
27 Nov 4.0 17:41:33 10° S 17:46:36 41° ESE 17:50:00 19° NE visible
27 Nov 4.8 19:25:18 10° WSW 19:30:16 35° NW 19:30:42 35° NW visible
28 Nov 4.5 17:10:26 10° S 17:15:07 31° ESE 17:19:47 10° NE visible
28 Nov 4.4 18:53:20 10° WSW 18:58:32 45° NW 19:00:29 32° N visible
28 Nov 6.5 20:41:10 10° NW 20:41:11 10° NW 20:41:11 10° NW visible
29 Nov 4.0 18:21:30 10° SW 18:26:51 59° NW 18:30:11 23° NNE visible
29 Nov 6.1 20:08:30 10° WNW 20:10:52 15° NW 20:10:52 15° NW visible
30 Nov 3.7 17:49:47 10° SW 17:55:13 78° NW 17:59:49 15° NNE visible
30 Nov 5.7 19:36:01 10° WNW 19:39:43 18° NW 19:40:30 18° NNW visible
01 Dec 3.6 17:18:11 10° SSW 17:23:37 81° ESE 17:29:05 10° NE visible
01 Dec 5.5 19:03:40 10° W 19:07:51 22° NW 19:10:04 18° N visible
